******** Week 360 almanac for PRN-1 ******** ID: 1 Health: 0 Eccentricity: 0.001593589783 Time of Applicability(s): 503808 Orbital Inclination(rad): 0.9582610203 Rate of Right Ascen(r/s): -7.920329913e-09 SQRT(A) (m 1/2): 5153.575684 Right Ascen at Week(rad): 3.13461484 Argument of Perigee(rad): 0.09295002291 Mean Anom(rad): 2.352695097 Af0(s): 0.0002547419189 Af1(s/s): -7.275958e-12 week: 360 ******** Week 360 almanac for PRN-2 ******** ID: 2 Health: 0 Eccentricity: 0.01689147949 Time of Applicability(s): 503808 Orbital Inclination(rad): 0.9634801502 Rate of Right Ascen(r/s): -7.897471818e-09 SQRT(A) (m 1/2): 5153.54248 Right Ascen at Week(rad): 2.972177285 Argument of Perigee(rad): -0.8098332493 Mean Anom(rad): -2.4616332 Af0(s): 4.14520874e-05 Af1(s/s): 7.275958e-12 week: 360 ******** Week 360 almanac for PRN-3 ******** ID: 3 Health: 0 Eccentricity: 0.00649356842 Time of Applicability(s): 503808 Orbital Inclination(rad): 0.9933448387 Rate of Right Ascen(r/s): -7.463168014e-09 SQRT(A) (m 1/2): 5153.584961 Right Ascen at Week(rad): -2.161761303 Argument of Perigee(rad): 1.202107266 Mean Anom(rad): 0.2287758575 Af0(s): 0.0004333627319 Af1(s/s): -1.091394e-11 week: 360 ******** Week 360 almanac for PRN-4 ******** ID: 4 Health: 0 Eccentricity: 0.003726959228 Time of Applicability(s): 503808 Orbital Inclination(rad): 0.9704130243 Rate of Right Ascen(r/s): -8.034620388e-09 SQRT(A) (m 1/2): 5153.672363 Right Ascen at Week(rad): -1.090997397 Argument of Perigee(rad): -2.878566632 Mean Anom(rad): -3.074978341 Af0(s): 3.768371582e-05 Af1(s/s): 3.637979e-12 week: 360 ******** Week 360 almanac for PRN-5 ******** ID: 5 Health: 0 Eccentricity: 0.005395889282 Time of Applicability(s): 503808 Orbital Inclination(rad): 0.9799225068 Rate of Right Ascen(r/s): -7.611745631e-09 SQRT(A) (m 1/2): 5153.664062 Right Ascen at Week(rad): -2.221552473 Argument of Perigee(rad): 1.416914011 Mean Anom(rad): -2.410302518 Af0(s): -0.0001816355103 Af1(s/s): 0 week: 360 ******** Week 360 almanac for PRN-6 ******** ID: 6 Health: 0 Eccentricity: 0.003853321075 Time of Applicability(s): 503808 Orbital Inclination(rad): 0.987125026 Rate of Right Ascen(r/s): -7.668890868e-09 SQRT(A) (m 1/2): 5153.595215 Right Ascen at Week(rad): 3.085273913 Argument of Perigee(rad): -0.562764596 Mean Anom(rad): 1.544323924 Af0(s): -0.0004838589111 Af1(s/s): 0 week: 360 ******** Week 360 almanac for PRN-7 ******** ID: 7 Health: 0 Eccentricity: 0.02050542831 Time of Applicability(s): 503808 Orbital Inclination(rad): 0.9513401304 Rate of Right Ascen(r/s): -7.908900866e-09 SQRT(A) (m 1/2): 5153.570312 Right Ascen at Week(rad): -0.0823084057 Argument of Perigee(rad): -1.990776748 Mean Anom(rad): 0.6827098345 Af0(s): -0.0001243562622 Af1(s/s): -3.637979e-12 week: 360 ******** Week 360 almanac for PRN-8 ******** ID: 8 Health: 0 Eccentricity: 0.01158189774 Time of Applicability(s): 503808 Orbital Inclination(rad): 0.9431549048 Rate of Right Ascen(r/s): -8.411778956e-09 SQRT(A) (m 1/2): 5153.628418 Right Ascen at Week(rad): 1.964863109 Argument of Perigee(rad): 0.5246416531 Mean Anom(rad): -2.773172489 Af0(s): 0.0003813592041 Af1(s/s): -7.275958e-12 week: 360 ******** Week 360 almanac for PRN-9 ******** ID: 9 Health: 0 Eccentricity: 0.003354072571 Time of Applicability(s): 503808 Orbital Inclination(rad): 0.9645527384 Rate of Right Ascen(r/s): -8.103194673e-09 SQRT(A) (m 1/2): 5153.715332 Right Ascen at Week(rad): -1.155292015 Argument of Perigee(rad): 2.06724584 Mean Anom(rad): -2.180716227 Af0(s): 0.0006067078247 Af1(s/s): 0 week: 360 ******** Week 360 almanac for PRN-10 ******** ID: 10 Health: 0 Eccentricity: 0.01094198227 Time of Applicability(s): 503808 Orbital Inclination(rad): 0.9928774539 Rate of Right Ascen(r/s): -7.486026109e-09 SQRT(A) (m 1/2): 5153.609375 Right Ascen at Week(rad): -2.164271249 Argument of Perigee(rad): -2.255592166 Mean Anom(rad): -0.7625019275 Af0(s): -0.0004665244019 Af1(s/s): 0 week: 360 ******** Week 360 almanac for PRN-11 ******** ID: 11 Health: 0 Eccentricity: 0.002202510834 Time of Applicability(s): 503808 Orbital Inclination(rad): 0.9639894798 Rate of Right Ascen(r/s): -7.874613723e-09 SQRT(A) (m 1/2): 5153.52832 Right Ascen at Week(rad): 3.103971177 Argument of Perigee(rad): -2.302437378 Mean Anom(rad): 2.634057734 Af0(s): -0.0003293556763 Af1(s/s): 1.455192e-11 week: 360 ******** Week 360 almanac for PRN-12 ******** ID: 12 Health: 0 Eccentricity: 0.009017944336 Time of Applicability(s): 503808 Orbital Inclination(rad): 0.9591238845 Rate of Right Ascen(r/s): -7.828897533e-09 SQRT(A) (m 1/2): 5153.726562 Right Ascen at Week(rad): 1.035183865 Argument of Perigee(rad): 1.560597752 Mean Anom(rad): 0.02073345811 Af0(s): -0.0004800905395 Af1(s/s): 0 week: 360 ******** Week 360 almanac for PRN-13 ******** ID: 13 Health: 0 Eccentricity: 0.01000881195 Time of Applicability(s): 503808 Orbital Inclination(rad): 0.9760695785 Rate of Right Ascen(r/s): -7.988904198e-09 SQRT(A) (m 1/2): 5153.61377 Right Ascen at Week(rad): -0.9800766543 Argument of Perigee(rad): 0.9964156469 Mean Anom(rad): -3.019838547 Af0(s): 0.0005411381592 Af1(s/s): 0 week: 360 ******** Week 360 almanac for PRN-14 ******** ID: 14 Health: 0 Eccentricity: 0.006733417511 Time of Applicability(s): 503808 Orbital Inclination(rad): 0.9425017645 Rate of Right Ascen(r/s): -7.966046103e-09 SQRT(A) (m 1/2): 5153.60498 Right Ascen at Week(rad): 0.9804747553 Argument of Perigee(rad): -2.748446412 Mean Anom(rad): -0.1355636797 Af0(s): 0.0005833439209 Af1(s/s): 3.637979e-12 week: 360 ******** Week 360 almanac for PRN-15 ******** ID: 15 Health: 0 Eccentricity: 0.01661300659 Time of Applicability(s): 503808 Orbital Inclination(rad): 0.9424298592 Rate of Right Ascen(r/s): -8.308917528e-09 SQRT(A) (m 1/2): 5153.632812 Right Ascen at Week(rad): -1.299491452 Argument of Perigee(rad): 1.50243756 Mean Anom(rad): 2.512463541 Af0(s): 0.000309760144 Af1(s/s): 3.637979e-12 week: 360 ******** Week 360 almanac for PRN-16 ******** ID: 16 Health: 0 Eccentricity: 0.01504516602 Time of Applicability(s): 503808 Orbital Inclination(rad): 0.9582430439 Rate of Right Ascen(r/s): -7.874613723e-09 SQRT(A) (m 1/2): 5153.603516 Right Ascen at Week(rad): 1.052155401 Argument of Perigee(rad): 0.9296474104 Mean Anom(rad): -1.744973929 Af0(s): 0.0001748524414 Af1(s/s): 7.275958e-12 week: 360 ******** Week 360 almanac for PRN-17 ******** ID: 17 Health: 0 Eccentricity: 0.0126619339 Time of Applicability(s): 503808 Orbital Inclination(rad): 0.9588662236 Rate of Right Ascen(r/s): -8.263201338e-09 SQRT(A) (m 1/2): 5153.536621 Right Ascen at Week(rad): 2.069669275 Argument of Perigee(rad): -1.120995035 Mean Anom(rad): -2.841569457 Af0(s): -6.330864258e-05 Af1(s/s): -1.091394e-11 week: 360 ******** Week 360 almanac for PRN-18 ******** ID: 18 Health: 0 Eccentricity: 0.005750656128 Time of Applicability(s): 503808 Orbital Inclination(rad): 0.9720788316 Rate of Right Ascen(r/s): -7.828897533e-09 SQRT(A) (m 1/2): 5153.591309 Right Ascen at Week(rad): 3.080185861 Argument of Perigee(rad): -2.865552512 Mean Anom(rad): 1.457046559 Af0(s): -0.0003225726074 Af1(s/s): 1.091394e-11 week: 360 ******** Week 360 almanac for PRN-19 ******** ID: 19 Health: 0 Eccentricity: 0.01113319397 Time of Applicability(s): 503808 Orbital Inclination(rad): 0.9580572885 Rate of Right Ascen(r/s): -8.274630386e-09 SQRT(A) (m 1/2): 5153.663086 Right Ascen at Week(rad): 2.113572734 Argument of Perigee(rad): 2.932585151 Mean Anom(rad): -1.029510459 Af0(s): 0.0005471675537 Af1(s/s): 0 week: 360 ******** Week 360 almanac for PRN-20 ******** ID: 20 Health: 255 Eccentricity: 0.0003161430359 Time of Applicability(s): 503808 Orbital Inclination(rad): 0.9599807566 Rate of Right Ascen(r/s): -8.160339911e-09 SQRT(A) (m 1/2): 5153.634766 Right Ascen at Week(rad): -1.149702497 Argument of Perigee(rad): 1.069543387 Mean Anom(rad): -3.071591299 Af0(s): 2.863962402e-05 Af1(s/s): 2.182787e-11 week: 360 ******** Week 360 almanac for PRN-21 ******** ID: 21 Health: 0 Eccentricity: 0.0007495880127 Time of Applicability(s): 503808 Orbital Inclination(rad): 0.9627551046 Rate of Right Ascen(r/s): -7.817468486e-09 SQRT(A) (m 1/2): 5153.71875 Right Ascen at Week(rad): -2.155634368 Argument of Perigee(rad): -0.3343486398 Mean Anom(rad): -0.2644843536 Af0(s): 0.0003210652588 Af1(s/s): 3.637979e-12 week: 360 ******** Week 360 almanac for PRN-22 ******** ID: 22 Health: 0 Eccentricity: 0.01209163666 Time of Applicability(s): 503808 Orbital Inclination(rad): 0.9576857775 Rate of Right Ascen(r/s): -7.863184676e-09 SQRT(A) (m 1/2): 5153.579102 Right Ascen at Week(rad): 1.055506864 Argument of Perigee(rad): -0.993198257 Mean Anom(rad): -2.193841949 Af0(s): -3.014697266e-05 Af1(s/s): 3.637979e-12 week: 360 ******** Week 360 almanac for PRN-23 ******** ID: 23 Health: 0 Eccentricity: 0.006040096283 Time of Applicability(s): 503808 Orbital Inclination(rad): 0.9878920164 Rate of Right Ascen(r/s): -7.508884204e-09 SQRT(A) (m 1/2): 5153.663574 Right Ascen at Week(rad): -2.196375115 Argument of Perigee(rad): -2.738037738 Mean Anom(rad): 0.3194855793 Af0(s): 0.00049064198 Af1(s/s): 3.637979e-12 week: 360 ******** Week 360 almanac for PRN-24 ******** ID: 24 Health: 0 Eccentricity: 0.01791620255 Time of Applicability(s): 503808 Orbital Inclination(rad): 0.9353052375 Rate of Right Ascen(r/s): -8.103194673e-09 SQRT(A) (m 1/2): 5153.592285 Right Ascen at Week(rad): -0.1908397935 Argument of Perigee(rad): 1.135621407 Mean Anom(rad): 1.664946271 Af0(s): -7.386008301e-05 Af1(s/s): 1.818989e-11 week: 360 ******** Week 360 almanac for PRN-25 ******** ID: 25 Health: 0 Eccentricity: 0.01293611526 Time of Applicability(s): 503808 Orbital Inclination(rad): 0.9475531153 Rate of Right Ascen(r/s): -7.897471818e-09 SQRT(A) (m 1/2): 5153.67627 Right Ascen at Week(rad): 0.9413065632 Argument of Perigee(rad): 1.157379142 Mean Anom(rad): -0.1123678378 Af0(s): 0.0003466901855 Af1(s/s): -3.637979e-12 week: 360 ******** Week 360 almanac for PRN-26 ******** ID: 26 Health: 0 Eccentricity: 0.01101016998 Time of Applicability(s): 503808 Orbital Inclination(rad): 0.9283723634 Rate of Right Ascen(r/s): -8.080336578e-09 SQRT(A) (m 1/2): 5153.668945 Right Ascen at Week(rad): 0.866697273 Argument of Perigee(rad): 0.7095870805 Mean Anom(rad): -0.9329775269 Af0(s): -0.0002660470337 Af1(s/s): -7.275958e-12 week: 360 ******** Week 360 almanac for PRN-27 ******** ID: 27 Health: 0 Eccentricity: 0.0143661499 Time of Applicability(s): 503808 Orbital Inclination(rad): 0.9522569236 Rate of Right Ascen(r/s): -8.331775623e-09 SQRT(A) (m 1/2): 5153.608398 Right Ascen at Week(rad): 1.996941134 Argument of Perigee(rad): 0.8820501886 Mean Anom(rad): -2.671966084 Af0(s): -4.748148193e-05 Af1(s/s): -1.091394e-11 week: 360 ******** Week 360 almanac for PRN-28 ******** ID: 28 Health: 0 Eccentricity: 0.0004239082336 Time of Applicability(s): 503808 Orbital Inclination(rad): 0.9622757356 Rate of Right Ascen(r/s): -7.828897533e-09 SQRT(A) (m 1/2): 5153.747559 Right Ascen at Week(rad): -0.1079999624 Argument of Perigee(rad): -0.007742558306 Mean Anom(rad): 1.019464307 Af0(s): -0.0004612486816 Af1(s/s): 7.275958e-12 week: 360 ******** Week 360 almanac for PRN-29 ******** ID: 29 Health: 0 Eccentricity: 0.003371238708 Time of Applicability(s): 503808 Orbital Inclination(rad): 0.9615207295 Rate of Right Ascen(r/s): -8.240343243e-09 SQRT(A) (m 1/2): 5153.700684 Right Ascen at Week(rad): 2.086409365 Argument of Perigee(rad): 2.740117001 Mean Anom(rad): -2.807904271 Af0(s): -0.0002879035889 Af1(s/s): 7.275958e-12 week: 360 ******** Week 360 almanac for PRN-30 ******** ID: 30 Health: 0 Eccentricity: 0.008073329925 Time of Applicability(s): 503808 Orbital Inclination(rad): 0.9365995338 Rate of Right Ascen(r/s): -8.080336578e-09 SQRT(A) (m 1/2): 5153.702148 Right Ascen at Week(rad): -0.09136098959 Argument of Perigee(rad): -2.316190399 Mean Anom(rad): 0.5094490264 Af0(s): 0.0001130511475 Af1(s/s): 1.455192e-11 week: 360 ******** Week 360 almanac for PRN-31 ******** ID: 31 Health: 0 Eccentricity: 0.01086187363 Time of Applicability(s): 503808 Orbital Inclination(rad): 0.9551151612 Rate of Right Ascen(r/s): -7.851755628e-09 SQRT(A) (m 1/2): 5153.521484 Right Ascen at Week(rad): -0.05807929899 Argument of Perigee(rad): 0.9355863428 Mean Anom(rad): -0.4123974025 Af0(s): -0.0001288783081 Af1(s/s): 3.637979e-12 week: 360 ******** Week 360 almanac for PRN-32 ******** ID: 32 Health: 0 Eccentricity: 0.009351730347 Time of Applicability(s): 503808 Orbital Inclination(rad): 0.9676087157 Rate of Right Ascen(r/s): -8.068907531e-09 SQRT(A) (m 1/2): 5153.674316 Right Ascen at Week(rad): -1.138268798 Argument of Perigee(rad): -1.997324255 Mean Anom(rad): -2.097707868 Af0(s): -4.898883057e-05 Af1(s/s): 1.818989e-11 week: 360